Dewpoint
26 23 20 19 21 17 14 15 15 16 17 18 16 16 17 18 21 19 18 19 21 21 22 23 23 24 27 27 27 25 25 29 33 33 31 31 31 31 31 31 29 29 29 29
25 23 23 22 21 21 21 19 17 18 20 19 19 18 18 19 19 18 18 18 18 19 19 19 20 23 26 26 26 25 24 26 30 31 31 30 30 30 29 31 28 27 28 27
21 20 26 24 22 20 20 20 18 18 20 20 18 15 18 19 20 19 20 19 19 19 19 19 20 23 25 26 25 25 24 24 27 29 29 26 25 26 27 28 27 25 26 27
24 25 23 24 21 21 17 21 20 20 19 15 18 11 12 14 13 14 14 15 17 18 20 21 21 23 23 25 27 25 25 24 26 27 27 25 25 25 26 26 28 26 25 25
19 21 23 23 22 22 20 20 19 20 19 19 18 14 19 14 13 13 14 15 17 17 17 18 18 19 23 24 26 26 24 24 25 26 26 25 25 26 25 26 26 26 24 24
24 23 22 21 23 23 22 20 20 22 19 17 17 14 11 11 12 16 11 12 15 16 18 19 20 21 22 25 25 24 24 24 25 25 25 24 24 23 24 24 25 25 23 23
19 19 22 22 21 23 20 19 16 14 16 15 17 15 12 12 14 13 13 14 16 19 19 19 21 22 23 24 23 23 24 24 24 24 24 24 24 23 22 22 23 23 23 22
20 25 19 21 20 18 20 19 19 15 13 16 18 15 19 16 16 17 16 18 18 19 19 20 24 24 24 24 23 22 23 23 23 24 24 24 23 23 22 22 23 23 23 22
18 19 20 21 20 18 17 18 21 21 23 20 17 18 18 20 16 15 16 19 21 20 20 19 23 24 24 24 24 23 23 24 23 23 24 24 23 23 22 21 22 22 22 21
22 19 22 19 22 21 18 20 18 20 17 16 16 15 17 17 17 17 18 20 27 26 22 20 22 26 25 25 24 23 23 23 24 24 23 23 23 23 22 22 21 21 21 20
22 27 26 28 22 22 24 19 19 19 22 18 18 17 18 17 18 19 24 27 27 27 28 29 29 29 29 28 26 25 24 24 24 24 24 24 24 23 23 22 22 21 21 19
25 34 31 28 30 25 21 24 22 21 19 19 20 20 23 22 23 28 29 30 30 28 26 28 29 29 29 31 33 31 28 26 26 25 24 24 24 23 22 22 21 21 20 20
37 34 28 28 25 31 31 32 31 31 32 28 25 25 26 24 25 27 23 18 19 19 21 22 25 26 27 28 30 29 29 28 28 27 26 25 24 23 23 22 21 21 21 20
38 34 30 25 24 29 30 31 33 33 29 27 28 27 28 24 23 22 19 12 11 13 17 20 23 26 28 29 29 29 28 27 28 28 27 25 25 24 23 23 22 21 21 20
35 30 30 29 33 33 31 30 28 28 28 26 26 27 26 21 22 22 22 17 15 15 20 25 27 28 31 29 29 28 29 28 28 27 27 27 27 25 25 25 25 23 22 20
32 27 28 23 23 21 22 25 24 24 23 25 26 22 20 20 18 16 18 22 16 18 23 28 25 31 27 26 28 28 29 30 29 28 28 27 28 27 26 26 26 23 22 21
27 26 23 18 19 20 15 18 20 20 18 22 18 18 21 18 13 6 12 23 15 23 26 29 24 24 24 26 29 27 29 31 29 29 29 28 27 27 27 26 25 23 22 21
24 22 19 17 12 8 13 22 23 22 21 22 21 19 21 19 15 13 26 15 16 19 26 24 20 20 23 24 26 27 30 29 29 29 28 27 26 25 25 23 24 23 21 21
24 21 12 10 3 9 13 16 15 16 19 20 18 19 21 19 19 3 8 16 21 22 27 20 20 21 22 23 24 28 23 25 28 29 29 27 25 23 23 22 22 22 22 21
15 23 18 7 6 -3 15 13 18 20 10 16 19 20 21 19 7 5 10 19 21 23 19 16 15 19 22 22 25 21 21 23 21 25 27 27 24 21 20 20 19 21 22 22
-2 -4 5 2 -2 1 13 15 12 2 2 11 20 21 19 17 14 14 18 18 21 21 13 12 12 11 13 22 17 16 19 18 19 21 20 26 26 23 21 21 18 19 20 19
3 -4 -9 -10 -10 -11 16 10 2 6 15 14 14 19 19 18 18 20 17 15 16 11 10 10 9 8 10 12 13 14 13 13 15 17 19 22 23 24 21 20 18 18 19 18
2 6 -2 1 -1 12 16 14 14 18 15 16 19 22 19 19 17 16 13 13 12 10 9 9 11 10 10 11 12 10 10 10 11 13 14 15 18 23 22 21 20 18 18 16
11 10 7 9 8 9 10 12 13 14 13 14 19 20 19 17 14 12 11 11 9 10 10 11 10 9 9 9 9 8 7 7 7 7 7 9 12 16 22 20 20 18 18 17
11 13 10 10 9 10 12 12 12 13 14 16 17 14 13 12 11 10 10 10 9 9 8 8 8 7 6 6 5 4 4 3 2 3 4 5 8 11 17 19 19 18 19 19
13 10 8 7 8 8 8 11 15 15 15 13 11 11 11 11 10 8 7 6 6 6 6 5 4 3 2 1 1 0 0 -1 -1 -1 -0 1 5 8 12 18 17 22 23 23
Lifted_Index
7 6 5 5 5 6 6 5 5 6 6 6 7 7 8 8 7 6 6 6 5 5 6 6 6 7 7 8 8 9 9 8 8 9 9 9 9 10 11 13 14 15 16 16
6 5 5 5 6 6 5 5 5 6 6 7 7 7 8 8 7 6 6 6 6 6 6 6 6 6 7 7 8 8 8 8 8 9 9 9 10 10 11 12 13 15 16 16
5 5 5 5 5 5 5 5 5 6 6 7 7 7 7 8 7 6 6 6 6 7 6 6 6 6 6 7 7 8 8 9 9 9 9 9 10 10 11 11 13 14 15 16
4 4 5 5 5 5 5 5 5 6 6 6 6 6 6 7 7 7 6 7 7 7 7 7 6 6 6 7 7 7 8 8 9 9 9 9 10 10 10 11 12 13 14 15
4 5 5 5 5 5 5 5 5 5 5 5 5 5 5 7 7 7 7 7 7 7 7 7 7 7 7 7 7 7 7 8 9 9 9 9 9 10 10 10 11 12 13 14
4 5 5 5 4 4 4 4 4 4 4 3 4 4 5 6 7 7 7 7 7 7 7 7 7 7 7 7 7 7 7 7 8 9 9 9 9 9 10 10 11 11 12 13
4 4 4 4 3 3 3 3 2 2 2 2 3 4 4 6 7 7 7 7 7 7 7 7 7 7 6 7 7 8 8 8 8 9 9 9 9 10 10 10 10 10 11 11
3 4 4 4 3 3 3 2 1 1 1 2 3 3 4 6 6 6 6 6 6 5 5 6 6 6 6 6 7 7 8 8 8 9 9 9 9 9 9 9 9 10 10 10
3 4 5 5 4 4 3 3 2 1 1 1 2 3 4 5 5 6 6 5 5 4 5 5 6 6 6 6 7 7 7 8 8 8 8 8 9 9 8 8 8 9 9 10
3 4 5 5 4 4 4 3 3 2 1 1 1 2 3 4 5 5 5 4 4 4 4 5 5 5 6 6 6 7 7 8 8 8 8 8 8 8 8 8 8 8 9 9
2 3 4 4 4 4 4 3 2 1 1 0 1 1 3 4 4 4 4 4 5 4 4 4 5 5 6 6 6 7 7 7 7 8 8 8 8 8 8 8 8 7 8 8
2 2 2 3 3 3 3 2 2 1 1 1 1 1 2 3 3 3 4 5 5 5 5 5 5 5 5 5 6 6 6 6 7 7 7 7 7 8 8 8 8 7 7 7
2 1 1 2 2 3 2 1 1 1 1 1 1 2 2 2 2 3 4 5 5 6 6 6 6 5 5 5 6 7 7 7 7 7 6 6 6 7 7 8 8 8 7 7
2 1 1 2 2 2 1 1 1 1 1 1 2 2 2 2 2 2 3 4 5 6 6 6 7 6 6 6 7 8 8 8 8 7 6 6 5 6 6 7 7 8 8 8
2 2 2 2 2 1 1 1 1 2 2 2 2 3 3 3 3 3 4 5 5 6 7 8 8 8 8 7 8 9 9 10 10 9 8 6 6 6 6 6 7 7 8 8
2 2 2 2 2 2 2 2 2 2 3 3 3 3 4 4 4 5 6 6 7 8 9 10 11 11 11 10 10 10 11 11 11 10 9 9 7 7 6 6 6 6 7 8
3 3 3 3 3 2 3 3 4 4 4 4 4 4 4 5 5 6 7 8 9 10 12 13 14 14 14 14 13 13 13 13 12 11 11 11 10 8 8 7 7 6 6 7
4 4 3 3 3 3 3 5 5 4 4 4 4 4 5 6 7 8 9 10 11 12 13 14 15 15 15 16 16 16 15 15 14 13 12 11 11 10 10 9 8 7 7 7
5 5 4 3 2 2 4 5 5 4 4 4 5 5 6 7 7 8 10 11 12 12 13 14 15 15 15 16 16 16 16 16 15 14 13 13 12 12 11 10 9 9 9 9
5 5 4 3 2 2 4 5 5 4 4 5 6 7 7 8 7 8 10 11 11 11 12 12 13 14 15 15 16 16 16 16 16 16 15 15 14 13 12 11 10 10 10 10
4 4 4 3 3 3 4 5 5 5 5 7 8 8 8 8 8 9 10 10 11 11 11 12 12 13 14 15 15 16 16 15 16 16 16 16 15 14 13 12 11 10 10 9
4 4 4 4 3 4 5 6 6 6 6 7 8 8 8 8 9 9 10 10 10 11 11 11 12 13 13 14 14 14 15 15 15 16 16 16 16 15 14 13 12 10 9 8
5 5 5 5 5 5 6 6 6 6 7 7 8 7 7 7 8 9 9 10 10 10 10 11 11 12 12 13 13 14 14 14 15 16 16 17 16 15 14 13 12 11 10 9
5 6 6 6 6 6 6 5 5 5 6 6 6 6 6 6 7 7 8 9 9 9 9 10 10 10 11 12 13 13 14 14 15 15 16 16 16 15 14 13 13 12 10 9
6 6 5 5 5 5 5 5 5 5 5 5 5 5 5 5 5 6 6 7 8 8 8 8 9 9 10 11 12 13 14 15 15 15 15 16 15 15 15 14 13 12 11 10
5 5 5 5 5 4 4 5 4 4 4 4 3 3 3 4 4 5 6 6 7 7 7 7 8 9 10 11 12 13 15 15 15 15 15 15 15 15 15 15 14 13 12 11